Hourly Weather Bridgetown

Today, 4 July, Saturday

Time Temperature Precipitation Wind Pressure Humidity
00:00 +29°C° 0.1 mm 8 mps 760 mmHg 79%
01:00 +29°C° 0.1 mm 8 mps 759 mmHg 78%
02:00 +29°C° 0 mm 9 mps 759 mmHg 76%
03:00 +29°C° 0.1 mm 9 mps 759 mmHg 77%
04:00 +29°C° 0.1 mm 9 mps 759 mmHg 79%
05:00 +29°C° 0.1 mm 9 mps 759 mmHg 81%
06:00 +29°C° 0 mm 8 mps 759 mmHg 78%
07:00 +29°C° 0 mm 8 mps 759 mmHg 76%
08:00 +31°C° 0 mm 8 mps 760 mmHg 73%
09:00 +31°C° 0 mm 8 mps 760 mmHg 71%
10:00 +31°C° 0 mm 9 mps 760 mmHg 70%
11:00 +32°C° 0 mm 9 mps 760 mmHg 68%
12:00 +32°C° 0 mm 8 mps 760 mmHg 67%
13:00 +32°C° 0 mm 7 mps 759 mmHg 66%
14:00 +32°C° 0 mm 7 mps 759 mmHg 65%
15:00 +32°C° 0 mm 7 mps 759 mmHg 67%
16:00 +30°C° 0 mm 7 mps 759 mmHg 69%
17:00 +30°C° 0 mm 6 mps 759 mmHg 71%
18:00 +30°C° 0.2 mm 7 mps 759 mmHg 73%
19:00 +29°C° 0.2 mm 7 mps 759 mmHg 76%
20:00 +29°C° 0.2 mm 7 mps 759 mmHg 78%
21:00 +29°C° 0.2 mm 8 mps 760 mmHg 77%
22:00 +29°C° 0.2 mm 8 mps 760 mmHg 76%
23:00 +29°C° 0.2 mm 9 mps 760 mmHg 75%

Tomorrow, 5 July, Sunday

Time Temperature Precipitation Wind Pressure Humidity
00:00 +29°C° 0 mm 8 mps 760 mmHg 75%
01:00 +29°C° 0 mm 8 mps 759 mmHg 74%
02:00 +29°C° 0 mm 8 mps 759 mmHg 73%
03:00 +29°C° 0 mm 7 mps 759 mmHg 76%
04:00 +29°C° 0 mm 7 mps 759 mmHg 78%
05:00 +29°C° 0 mm 7 mps 759 mmHg 80%
06:00 +29°C° 0.1 mm 8 mps 759 mmHg 77%
07:00 +31°C° 0.1 mm 8 mps 760 mmHg 75%
08:00 +31°C° 0.1 mm 9 mps 760 mmHg 73%
09:00 +31°C° 0 mm 8 mps 760 mmHg 71%
10:00 +32°C° 0 mm 8 mps 760 mmHg 69%
11:00 +32°C° 0 mm 8 mps 760 mmHg 67%
12:00 +32°C° 0 mm 7 mps 760 mmHg 68%
13:00 +32°C° 0 mm 7 mps 760 mmHg 69%
14:00 +33°C° 0 mm 7 mps 759 mmHg 70%
15:00 +32°C° 0.2 mm 7 mps 759 mmHg 72%
16:00 +32°C° 0.2 mm 7 mps 759 mmHg 74%
17:00 +31°C° 0.2 mm 8 mps 758 mmHg 76%
18:00 +31°C° 0.2 mm 8 mps 759 mmHg 77%
19:00 +31°C° 0.2 mm 8 mps 759 mmHg 79%
20:00 +31°C° 0.2 mm 8 mps 760 mmHg 80%
21:00 +31°C° 0.2 mm 8 mps 760 mmHg 80%
22:00 +29°C° 0.2 mm 8 mps 760 mmHg 80%
23:00 +29°C° 0.2 mm 8 mps 760 mmHg 80%

Day after tomorrow, 6 July, Monday

Time Temperature Precipitation Wind Pressure Humidity
00:00 +29°C° 0.4 mm 8 mps 760 mmHg 80%
01:00 +29°C° 0.4 mm 8 mps 759 mmHg 80%
02:00 +29°C° 0.4 mm 8 mps 759 mmHg 80%
03:00 +29°C° 0.3 mm 8 mps 759 mmHg 80%
04:00 +29°C° 0.3 mm 8 mps 759 mmHg 80%
05:00 +29°C° 0.3 mm 8 mps 759 mmHg 80%
06:00 +31°C° 0.1 mm 8 mps 759 mmHg 78%
07:00 +31°C° 0.1 mm 8 mps 760 mmHg 77%
08:00 +31°C° 0.1 mm 8 mps 760 mmHg 75%
09:00 +32°C° 0.1 mm 8 mps 760 mmHg 75%
10:00 +32°C° 0.1 mm 8 mps 760 mmHg 74%
11:00 +32°C° 0.1 mm 8 mps 760 mmHg 73%
12:00 +32°C° 0.3 mm 8 mps 760 mmHg 73%
13:00 +32°C° 0.3 mm 8 mps 760 mmHg 74%
14:00 +32°C° 0.3 mm 8 mps 759 mmHg 74%
15:00 +32°C° 0.4 mm 8 mps 759 mmHg 76%
16:00 +31°C° 0.4 mm 8 mps 759 mmHg 77%
17:00 +31°C° 0.4 mm 8 mps 759 mmHg 78%
18:00 +31°C° 0.3 mm 8 mps 759 mmHg 79%
19:00 +31°C° 0.3 mm 8 mps 759 mmHg 80%
20:00 +31°C° 0.3 mm 8 mps 760 mmHg 81%
21:00 +31°C° 0.1 mm 9 mps 760 mmHg 81%
22:00 +29°C° 0.1 mm 9 mps 760 mmHg 81%
23:00 +29°C° 0.1 mm 9 mps 760 mmHg 82%

7 July, Tuesday

Time Temperature Precipitation Wind Pressure Humidity
00:00 +29°C° 0.2 mm 9 mps 759 mmHg 82%
01:00 +29°C° 0.2 mm 9 mps 759 mmHg 82%
02:00 +29°C° 0.2 mm 9 mps 758 mmHg 82%
03:00 +29°C° 0.2 mm 9 mps 758 mmHg 81%
04:00 +29°C° 0.2 mm 9 mps 758 mmHg 81%
05:00 +29°C° 0.2 mm 9 mps 758 mmHg 80%
06:00 +29°C° 0.5 mm 9 mps 759 mmHg 79%
07:00 +31°C° 0.5 mm 9 mps 759 mmHg 78%
08:00 +31°C° 0.5 mm 9 mps 759 mmHg 77%
09:00 +31°C° 0.5 mm 9 mps 759 mmHg 77%
10:00 +31°C° 0.5 mm 9 mps 760 mmHg 76%
11:00 +32°C° 0.5 mm 9 mps 760 mmHg 75%
12:00 +32°C° 0.6 mm 9 mps 759 mmHg 75%
13:00 +32°C° 0.6 mm 9 mps 759 mmHg 74%
14:00 +32°C° 0.6 mm 8 mps 759 mmHg 74%
15:00 +32°C° 0.1 mm 8 mps 759 mmHg 75%
16:00 +32°C° 0.1 mm 7 mps 758 mmHg 76%
17:00 +30°C° 0.1 mm 7 mps 758 mmHg 76%
18:00 +30°C° 0.4 mm 7 mps 759 mmHg 77%
19:00 +30°C° 0.4 mm 7 mps 759 mmHg 78%
20:00 +30°C° 0.4 mm 7 mps 759 mmHg 79%
21:00 +30°C° 0.3 mm 6 mps 759 mmHg 80%
22:00 +30°C° 0.3 mm 6 mps 760 mmHg 81%
23:00 +30°C° 0.3 mm 6 mps 760 mmHg 82%

8 July, Wednesday

Time Temperature Precipitation Wind Pressure Humidity
00:00 +29°C° 0.2 mm 6 mps 759 mmHg 82%
01:00 +29°C° 0.2 mm 7 mps 759 mmHg 83%
02:00 +29°C° 0.2 mm 7 mps 758 mmHg 83%
03:00 +29°C° 0.2 mm 8 mps 758 mmHg 83%
04:00 +29°C° 0.2 mm 8 mps 758 mmHg 82%
05:00 +29°C° 0.2 mm 9 mps 759 mmHg 81%
06:00 +31°C° 0.1 mm 9 mps 759 mmHg 78%
07:00 +31°C° 0.1 mm 9 mps 759 mmHg 75%
08:00 +31°C° 0.1 mm 9 mps 760 mmHg 72%
09:00 +32°C° 0 mm 9 mps 760 mmHg 70%
10:00 +32°C° 0 mm 9 mps 760 mmHg 68%
11:00 +32°C° 0 mm 9 mps 760 mmHg 67%
12:00 +32°C° 0.1 mm 8 mps 760 mmHg 69%
13:00 +32°C° 0.1 mm 8 mps 759 mmHg 71%
14:00 +32°C° 0.1 mm 8 mps 759 mmHg 73%
15:00 +32°C° 0.1 mm 8 mps 759 mmHg 73%
16:00 +32°C° 0.1 mm 8 mps 759 mmHg 73%
17:00 +31°C° 0.1 mm 8 mps 759 mmHg 73%
18:00 +31°C° 0.1 mm 8 mps 759 mmHg 75%
19:00 +31°C° 0.1 mm 8 mps 759 mmHg 77%
20:00 +29°C° 0.1 mm 7 mps 760 mmHg 79%
21:00 +29°C° 0.1 mm 8 mps 760 mmHg 79%
22:00 +29°C° 0.1 mm 8 mps 760 mmHg 80%
23:00 +29°C° 0.1 mm 8 mps 760 mmHg 80%

9 July, Thursday

Time Temperature Precipitation Wind Pressure Humidity
00:00 +29°C° 0.1 mm 8 mps 760 mmHg 80%
01:00 +29°C° 0.1 mm 8 mps 759 mmHg 79%
02:00 +29°C° 0.1 mm 8 mps 759 mmHg 79%
03:00 +29°C° 0.1 mm 8 mps 759 mmHg 79%
04:00 +29°C° 0.1 mm 8 mps 759 mmHg 80%
05:00 +29°C° 0.1 mm 8 mps 759 mmHg 80%
06:00 +29°C° 0.1 mm 9 mps 759 mmHg 77%
07:00 +31°C° 0.1 mm 9 mps 760 mmHg 74%
08:00 +31°C° 0.1 mm 9 mps 760 mmHg 71%
09:00 +31°C° 0 mm 9 mps 760 mmHg 72%
10:00 +32°C° 0 mm 9 mps 760 mmHg 73%
11:00 +32°C° 0 mm 9 mps 761 mmHg 73%
12:00 +32°C° 0.1 mm 9 mps 760 mmHg 73%
13:00 +32°C° 0.1 mm 9 mps 760 mmHg 72%
14:00 +32°C° 0.1 mm 9 mps 760 mmHg 72%
15:00 +32°C° 0.1 mm 9 mps 759 mmHg 71%
16:00 +32°C° 0.1 mm 9 mps 759 mmHg 71%
17:00 +31°C° 0.1 mm 10 mps 759 mmHg 71%
18:00 +31°C° 0 mm 10 mps 759 mmHg 72%
19:00 +31°C° 0 mm 10 mps 759 mmHg 73%
20:00 +31°C° 0 mm 10 mps 759 mmHg 74%
21:00 +31°C° 0 mm 10 mps 760 mmHg 75%
22:00 +31°C° 0 mm 10 mps 760 mmHg 75%
23:00 +31°C° 0 mm 10 mps 760 mmHg 75%
Show more